Rexburg, ID

8:05 PM MDT on August 23, 2016 (GMT -0600)
Rexburg-Madison County

Weather History for KRXE - April, 2013

Change the Weather History Date:

Wednesday, April 3, 2013

  Actual Average Record
Temperature  
Mean Temperature 50 °F 41 °F  
Max Temperature 63 °F 52 °F 65 °F (2004)
Min Temperature 37 °F 30 °F 13 °F (2008)
Degree Days  
Heating Degree Days 15 24  
Month to date heating degree days 49 74  
Since 1 July heating degree days 6709 7003  
Cooling Degree Days 0 0  
Month to date cooling degree days 0 0  
Year to date cooling degree days 0 0  
Moisture  
Dew Point 30 °F    
Average Humidity 44    
Maximum Humidity 64    
Minimum Humidity 23    
Precipitation  
Precipitation T in 0.04 in 0.35 in (2009)
Month to date precipitation T 0.12  
Year to date precipitation 2.44 2.75  
Sea Level Pressure  
Sea Level Pressure 30.05 in    
Wind  
Wind Speed 7 mph (SW)    
Max Wind Speed 21 mph    
Max Gust Speed 30 mph    
Visibility 10 miles    
Events Rain    
T = Trace of Precipitation, MM = Missing Value Source: NWS Daily Summary

Daily Weather History Graph

Daily Weather History Graph

Search for Another Location

Airport or City:

Trip Planner

Search our weather history database for the weather conditions in past years. The results will help you decide how hot, cold, wet, or windy it might be!

Date:

Astronomy

Apr. 03, 2013 Rise Set
Actual Time 7:04 AM MDT 7:56 PM MDT
Civil Twilight 6:35 AM MDT 8:26 PM MDT
Nautical Twilight 6:00 AM MDT 9:01 PM MDT
Astronomical Twilight 5:24 AM MDT 9:37 PM MDT
Moon 3:01 AM MDT (4/3) 1:01 PM MDT (4/3)
Length of Visible Light 13h 50m
Length of Day
12h 52m
Last Quarter, 44% of the Moon is Illuminated
Apr 3
Last Quarter
Apr 10
New
Apr 18
First Quarter
Apr 25
Full
May 2
Last Quarter

Hourly Weather History & Observations

Time (MDT) Temp. Windchill Dew Point Humidity Pressure Visibility Wind Dir Wind Speed Gust Speed Precip Events Conditions
12:53 AM 48.0 °F - 35.1 °F 61% 29.99 in 10.0 mi South 11.5 mph - N/A   Clear
1:53 AM 48.9 °F - 33.1 °F 54% 29.99 in 10.0 mi SSW 10.4 mph - N/A   Clear
2:53 AM 46.0 °F 41.9 °F 30.9 °F 56% 30.00 in 10.0 mi South 8.1 mph - N/A   Clear
3:53 AM 43.0 °F 40.3 °F 30.0 °F 60% 30.01 in 10.0 mi West 4.6 mph - N/A   Clear
4:53 AM 39.9 °F 33.9 °F 28.0 °F 63% 30.03 in 10.0 mi SSW 9.2 mph - N/A   Clear
5:53 AM 39.9 °F 35.1 °F 27.0 °F 60% 30.04 in 10.0 mi SSW 6.9 mph - N/A   Clear
6:53 AM 37.9 °F 35.5 °F 27.0 °F 65% 30.07 in 10.0 mi Variable 3.5 mph - N/A   Clear
7:53 AM 39.9 °F 34.5 °F 28.0 °F 63% 30.09 in 10.0 mi SSW 8.1 mph - N/A   Partly Cloudy
8:53 AM 44.1 °F 39.0 °F 28.9 °F 55% 30.10 in 10.0 mi SSW 9.2 mph - N/A   Scattered Clouds
9:53 AM 48.9 °F - 30.0 °F 48% 30.11 in 10.0 mi SSW 9.2 mph - N/A   Clear
10:53 AM 52.0 °F - 30.9 °F 45% 30.11 in 10.0 mi SW 10.4 mph - N/A   Scattered Clouds
11:53 AM 57.0 °F - 33.1 °F 40% 30.09 in 10.0 mi Variable 6.9 mph 16.1 mph N/A   Clear
12:53 PM 55.9 °F - 28.0 °F 34% 30.09 in 10.0 mi Calm Calm - N/A   Clear
1:53 PM 59.0 °F - 26.1 °F 28% 30.06 in 10.0 mi WSW 5.8 mph - N/A   Clear
2:53 PM 62.1 °F - 28.9 °F 29% 30.05 in 10.0 mi WSW 8.1 mph - N/A   Partly Cloudy
3:53 PM 60.1 °F - 23.0 °F 24% 30.04 in 10.0 mi West 4.6 mph 27.6 mph N/A   Overcast
4:53 PM 60.1 °F - 28.0 °F 30% 30.05 in 10.0 mi South 6.9 mph 19.6 mph N/A   Mostly Cloudy
5:53 PM 57.9 °F - 32.0 °F 37% 30.07 in 10.0 mi WSW 19.6 mph 29.9 mph N/A   Mostly Cloudy
6:53 PM 57.0 °F - 30.9 °F 37% 30.07 in 10.0 mi NNW 8.1 mph - 0.00 in Rain Light Rain
7:53 PM 57.0 °F - 30.0 °F 36% 30.05 in 10.0 mi ESE 3.5 mph - 0.00 in   Mostly Cloudy
8:53 PM 52.0 °F - 33.1 °F 49% 30.06 in 10.0 mi Calm Calm - N/A   Mostly Cloudy
9:53 PM 50.0 °F - 33.1 °F 52% 30.05 in 10.0 mi Calm Calm - N/A   Clear
10:53 PM 50.0 °F - 33.1 °F 52% 30.04 in 10.0 mi SSW 5.8 mph - N/A   Clear
11:53 PM 51.1 °F - 32.0 °F 48% 30.03 in 10.0 mi South 8.1 mph - N/A   Clear